Location: Kershaw
(34.5481°N, 80.5823°W)
Time: 07:30:56
(UTC+00:00)

Explorer 7 - Pass Details

Date: 04 October 2022
Orbit: 481 x 665 km, 50.3° (Epoch: 28 November)

Event Time Altitude Azimuth Distance (km) Brightness Sun altitude
Rises 18:00:47 0° 301° (WNW) 2,996 10.5 49.2°
Reaches altitude 10° 18:04:50 10° 334° (NNW) 2,063 9.6 48.9°
Maximum altitude 18:06:29 12° 355° (N) 1,944 9.4 48.8°
Drops below altitude 10° 18:08:08 10° 15° (NNE) 2,037 9.4 48.6°
Sets 18:12:03 0° 49° (NE) 2,904 10.1 48.3°
